Regional Weather Roundup
Issued by NWS

Home | Current Version | Previous Version | Graphics & Text | Print | Product List | Glossary Off
Versions: 1 2 3 4 5 6 7 8 9 10 11 12 13 14 15 16 17 18 19 20 21 22 23 24 25 26 27 28 29 30 31 32 33 34 35 36 37 38 39 40 41 42 43 44 45 46 47 48 49 50

000
ASUS43 KMKX 252020
RWRWI

WISCONSIN REGIONAL WEATHER ROUNDUP
NATIONAL WEATHER SERVICE MILWAUKEE/SULLIVAN WI
200 PM CST SUN JAN 25 2015

NOTE: "FAIR" INDICATES FEW OR NO CLOUDS BELOW 12,000 FEET WITH NO
SIGNIFICANT WEATHER AND/OR OBSTRUCTIONS TO VISIBILITY.

WIZ001-002-006>008-014>016-023>028-252100-
NORTHWEST WISCONSIN

CITY           SKY/WX    TMP DP  RH WIND       PRES   REMARKS
SUPERIOR ARPT  CLOUDY    23  15  71 E6        30.08S WCI  16
ASHLAND        PTSUNNY   20  10  65 NE8       30.08R WCI  10
HAYWARD        CLOUDY    22   8  55 VRB3      30.02S
SIREN          CLOUDY    26  12  56 NE3       30.04S
CUMBERLAND     CLOUDY    21   9  58 CALM      30.02R
RICE LAKE      CLOUDY    22  11  62 SW3       30.04R
CHETEK         CLOUDY    21   9  59 NE3       30.02F
LADYSMITH      PTSUNNY   22  10  60 NE3       30.03S
EAU CLAIRE     MOSUNNY   24  11  57 NE7       30.02R WCI  16
MENOMONIE      SUNNY     25  12  57 NE5       30.03S WCI  19
NEW RICHMOND   SUNNY     23  11  60 E5        30.03F WCI  17
OSCEOLA        SUNNY     26  12  55 E3        30.06F
$$

WIZ003>005-009-010-017-018-252100-
NORTH CENTRAL WISCONSIN

CITY           SKY/WX    TMP DP  RH WIND       PRES   REMARKS
MANITOWISH WTR CLOUDY    17   6  61 SE3       29.99S
ARBOR VITAE    CLOUDY    19   6  57 CALM      29.98F
WOODRUFF       CLOUDY    19   6  57 CALM      29.98F
RHINELANDER    CLOUDY    18   5  57 SE6       29.98F WCI  10
EAGLE RIVER    FAIR      18   4  55 CALM      29.97F
LAND O LAKES   CLOUDY    19   5  56 CALM      29.99F
PHILLIPS       CLOUDY    19   6  56 CALM      29.99S
TOMAHAWK       CLOUDY    21   6  52 CALM      29.99F
MEDFORD        CLOUDY    20   7  56 E5        29.97F WCI  14
MERRILL        SUNNY     21   6  51 NE5       29.99F WCI  15
$$

WIZ029-030-035-036-043>047-252100-
CENTRAL WISCONSIN

CITY           SKY/WX    TMP DP  RH WIND       PRES   REMARKS
WAUSAU         SUNNY     20   7  57 NE9       29.98S WCI   9
MOSINEE        SUNNY     21   9  58 N7        29.99F WCI  13
MARSHFIELD     PTSUNNY   22   9  57 NE8       29.99S WCI  12
STEVENS POINT  SUNNY     18   6  57 NE6       30.00S WCI  10
WAUPACA        PTSUNNY   24   9  53 NE9       30.02F WCI  14
WAUTOMA        MOSUNNY   22  10  59 NE10      30.00F WCI  11
WISC RAPIDS    SUNNY     21   7  54 E9        30.01S WCI  11
CAMP DOUGLAS   MOSUNNY   25  10  54 E12G17    29.98F WCI  14
$$

WIZ011>013-019>022-031-037>040-048>050-252100-
NORTHEAST WISCONSIN

CITY           SKY/WX    TMP DP  RH WIND       PRES   REMARKS
ANTIGO         SUNNY     18   6  60 N5        29.98S WCI  11
SHAWANO        MOSUNNY   23   9  55 NE8       30.03F WCI  14
OCONTO         SUNNY     21   8  57 CALM      30.05S
STURGEON BAY   MOSUNNY   18  10  73 N15       30.05S WCI   3
GREEN BAY      SUNNY     21  11  65 NE20      30.02F WCI   6
MANITOWOC      MOSUNNY   23  11  60 NE15G22   30.00F WCI  10
APPLETON       PTSUNNY   21   9  58 NE15      30.00F WCI   8
CLINTONVILLE   SUNNY     23   9  54 E7        30.02F WCI  15
OSHKOSH        PTSUNNY   22  13  68 NE18      29.99F WCI   7
$$

WIZ032>034-041-042-053>061-252100-
SOUTHWEST WISCONSIN

CITY           SKY/WX    TMP DP  RH WIND       PRES   REMARKS
LA CROSSE      MOSUNNY   30  16  56 E8        29.98F WCI  22
SPARTA         PTSUNNY   26  13  60 N7        29.99F WCI  18
VIROQUA        CLOUDY    25  17  71 NE12      29.94S WCI  14
BOSCOBEL       MOSUNNY   27  14  58 NE9G18    29.97F WCI  18
PRAIRIE DU CHI SUNNY     29  17  59 N8        29.95F WCI  21
PLATTEVILLE    CLOUDY    25  19  77 N21       29.92S WCI  10
$$

WIZ056-057-062-063-064-067-068-252100-
SOUTH CENTRAL WISCONSIN

CITY           SKY/WX    TMP DP  RH WIND       PRES   REMARKS
REEDSBURG      CLOUDY    22  12  66 NE12      29.97F WCI  10
BARABOO/DELLS  CLOUDY    22  13  69 NE12G18   29.96F WCI  10
LONE ROCK      CLOUDY    24  14  65 NE15      29.97F WCI  11
MINERAL POINT  CLOUDY    27  18  69 NE15G22   29.91S WCI  15
MADISON        PTSUNNY   25  15  66 NE18      29.94S WCI  11
MIDDLETON      CLOUDY    26  16  67 N15G23    29.94F WCI  14
WATERTOWN      SUNNY     27  11  49 NE16      29.93R WCI  15
MONROE         CLOUDY    27  19  74 N23G30    29.88S WCI  12
JANESVILLE     PTSUNNY   28  14  54 NE20G25   29.90R WCI  15
$$

WIZ051-052-058>065-066-070>072-252100-
SOUTHEAST WISCONSIN

CITY           SKY/WX    TMP DP  RH WIND       PRES   REMARKS
MILWAUKEE      PTSUNNY   26  15  63 NE20G28   29.93R WCI  12
WAUKESHA       MOSUNNY   25  10  54 N18G25    29.92S WCI  11
MILWAUKEE/TIMM SUNNY     25  10  54 NE18G26   29.94R WCI  11
RACINE         CLOUDY    26  15  63 N22G30    29.92R WCI  12
BURLINGTON     CLOUDY    24  13  63 NE17G26   29.90R WCI  10
KENOSHA        CLOUDY    27  16  63 NE20G29   29.89R WCI  13
FOND DU LAC    MOSUNNY   22  13  68 N18G25    29.98S WCI   7
SHEBOYGAN      MOSUNNY   24  11  57 NE18G32   29.97F WCI  10
WEST BEND      SUNNY     25  10  54 N18G25    29.95R WCI  11
JUNEAU         MOSUNNY   26   8  47 NE15G23   29.95S WCI  13
$$

LSZ147-162-252100-
LAKE SUPERIOR

STATION/POSITION TIME  TEMP    WIND        PRES    WAVE
                       AIR SEA DIR/SP/G            HT/PER
                 (UTC) (F)     (DEG/KT/KT) (MB)    (FT/S)
DEVILS ISLAND    2000   19      40/ 15/ 17 1020.3R
PORT WING        1900   22      50/  4/ 10 1018.6F
SAXON HARBOR     1900   21      30/  5/  7 1018.6F
$$

LMZ867-665-643>646-252100-
LAKE MICHIGAN

STATION/POSITION TIME  TEMP    WIND        PRES    WAVE
                       AIR SEA DIR/SP/G            HT/PER
                 (UTC) (F)     (DEG/KT/KT) (MB)    (FT/S)
NORTHPORT PIER   2008   18      40/  9/ 14 1018.3S
SISTER BAY       1943   21     360/ 13/ 18   N/A
KEWAUNEE LAKESHO 1900   22      40/ 19/ 22 1016.0R
SHEBOYGAN LAKESH 2000   22      30/ 23/ 26 1016.3F
PORT WASHINGTON  1940   24      40/ 20     1015.2S
MILWAUKEE LAKESH 2000   24      30/ 21/ 27   N/A
KENOSHA   LAKESH 2000   26      30/ 23/ 28 1012.5R
$$

TC  - TEMPERATURE IN CELSIUS
VSB - VISIBILITY IN STATUTE MILES
WCI - WIND CHILL INDEX
HX  - HEAT INDEX



USA.gov is the U.S. government's official web portal to all federal, state and local government web resources and services.